Погода в Мелихове

Россия / Калужская область     53°36′06″N   35°35′56″E
В апреле 2022 года жителям России запретили посещать сайт meteo.paraplan.net по решению Генеральной прокуратуры. Аудитория сайта уменьшилась в 10 раз. Владельцы сайта не видят смысла в поддержке погодного сервера в таких условиях. Сайт будет закрыт в октябре.
темп.,
°C
ветер,
м/с
пор.,
м/с
влажн.,
%
обл.,
%
осадки,
мм/ч
давл.,
гПа
погр.,
м
25 сентября, вс
вс2500:00+5зсз5897100 3.6 1002993
03:00+5зсз4997100 5.5 1002987
06:00+6зсз5995100 0.8 10031075
09:00+6зсз5995100 1.4 1004962
12:00+6з5995100 0.2 1005990
15:00+6з51095100 1.4 10071038
18:00+6з51195100 0.8 10081111
21:00+7зсз51393100 0.9 10091137
26 сентября, пн
пн2600:00+5зюз3997100 0.0 1010305
03:00+7з31193100 0.0 1010413
06:00+6зюз3993100 0.0 1010341
09:00+8зюз3889100 0.0 1011358
12:00+9з3779100 0.0 1012423
15:00+13з3661100 0.1 10121396
18:00+10юз0175100 0.1 101210
21:00+9св2289100 0.6 101353
27 сентября, вт
вт2700:00+8в379533 0.9 1012259
03:00+7в249796 1.1 1012123
06:00+8вюв2397100 0.1 101198
09:00+9юв249587 0.2 1012191
12:00+12вюв3481100 0.0 1011767
15:00+13вюв457779 0.1 1011839
18:00+11вюв4889100 0.1 1011357
21:00+10вюв41090100 0.1 1010487
28 сентября, ср
ср2800:00+9вюв51194100 0.3 1009550
03:00+9вюв51296100 2.4 1007512
06:00+9вюв51297100 2.1 1006489
09:00+9в51497100 3.3 1004561
12:00+10в51295100 1.1 1003572
15:00+11вюв41097100 3.6 1002586
18:00+11в41097100 1.0 1002591
21:00+11вюв2699100 1.3 1002326
29 сентября, чт
чт2900:00+11св0199100 0.1 100338
03:00+11сз1399100 0.1 1005166
06:00+10сз2599100 0.0 1006302
09:00+11ссз2497100 0.0 1008282
12:00+12сз3588100 0.1 1010508
15:00+13зсз2583100 0.1 1012628
18:00+12с2287100 0.1 101462
21:00+10всв2492100 0.1 1016163